Location: Bambrugge
(50.9212°N, 3.9299°E)
Time: 06:21:05
(UTC+00:00)

SL-16 R/B - Pass Details

Date: 15 August 2024
Orbit: 842 x 845 km, 71.0° (Epoch: 16 September)

Event Time Altitude Azimuth Distance (km) Brightness Sun altitude
Exits shadow 23:30:39 48° 239° (WSW) 1,094 2.5 -25.3°
Maximum altitude 23:32:09 69° 303° (WNW) 907 2.4 -25.3°
Drops below altitude 10° 23:37:50 10° 27° (NNE) 2,476 5.4 -25.4°
Sets 23:40:19 0° 30° (NNE) 3,416 6.3 -25.4°
